Location: Kerentrech
(47.7567°N, 3.3595°W)
Time: 14:10:34
(UTC+00:00)

Meteor PRIRODA - Pass Details

Date: 17 February 2020
Orbit: 490 x 512 km, 97.5° (Epoch: 27 March)

Event Time Altitude Azimuth Distance (km) Brightness Sun altitude
Rises 05:04:59 0° 16° (NNE) 2,625 7.6 -22.8°
Reaches altitude 10° 05:07:07 10° 20° (NNE) 1,730 6.7 -22.4°
Maximum altitude 05:10:48 59° 101° (E) 589 4.2 -21.8°
Enters shadow 05:14:05 12° 180° (S) 1,561 6.1 -21.3°
